Regional Weather Roundup
Issued by NWS Charleston, WV

Home | Current Version | Previous Version | Graphics & Text | Print | Product List | Glossary On
Versions: 1 2 3 4 5 6 7 8 9 10 11 12 13 14 15 16 17 18 19 20 21 22 23 24 25 26 27 28 29 30 31 32 33 34 35 36 37 38 39 40 41 42 43 44 45 46 47 48 49 50
000
ASUS41 KRLX 011210
RWRRLX
West Virginia Regional Weather Roundup
National Weather Service Charleston WV
700 AM EST SUN MAR 01 2015

Note: "fair" indicates few or no clouds below 12,000 feet with no
significant weather and/or obstructions to visibility.

WVZ003-011300-
Northern Panhandle of West Virginia

CITY           SKY/WX    TMP DP  RH WIND       PRES   REMARKS
WHEELING       LGT SNOW  29  26  89 S7        30.37F FOG
$$

WVZ009-011300-
Northwest West Virginia

CITY           SKY/WX    TMP DP  RH WIND       PRES   REMARKS
PARKERSBURG    CLOUDY    29  19  66 SE5       30.44S
$$

WVZ006-011300-
Western West Virginia

CITY           SKY/WX    TMP DP  RH WIND       PRES   REMARKS
HUNTINGTON     CLOUDY    31  17  56 CALM      30.40F
$$

WVZ015-011300-
West Central West Virginia

CITY           SKY/WX    TMP DP  RH WIND       PRES   REMARKS
CHARLESTON     CLOUDY    32  23  69 CALM      30.40F
$$

WVZ022-031-011300-
North Central West Virginia

CITY           SKY/WX    TMP DP  RH WIND       PRES   REMARKS
CLARKSBURG     CLOUDY    29  20  69 SE3       30.42F
MORGANTOWN     LGT SNOW  30  24  78 SE6       30.42F
$$

WVZ025-035-042-045-011300-
Southern West Virginia

CITY           SKY/WX    TMP DP  RH WIND       PRES   REMARKS
BECKLEY        FRZ RAIN  31  24  75 SE8       30.41F
LOGAN          CLOUDY    36  30  80 S7        30.36F
BLUEFIELD      CLOUDY    34  23  64 SE3       30.41S
LEWISBURG      LGT SNOW  25  22  88 N7        30.47F
$$

WVZ047-011300-
Northern Mountains of West Virginia

CITY           SKY/WX    TMP DP  RH WIND       PRES   REMARKS
ELKINS         CLOUDY    30  24  78 W3        30.42F
$$

WVZ052-011300-
Eastern Panhandle of West Virginia

CITY           SKY/WX    TMP DP  RH WIND       PRES   REMARKS
MARTINSBURG    LGT SNOW  25  13  60 CALM      30.58F
PETERSBURG     CLOUDY    26  10  52 CALM      30.54S
$$



USA.gov is the U.S. government's official web portal to all federal, state and local government web resources and services.